Location: Camerons Lookout
(40.9833°S, 175.9333°E)
Time: 18:18:09
(UTC+00:00)

Cosmos 2297 Rocket - Visible Passes

Search period start: 11 April 2026 00:00
Search period end: 21 April 2026 00:00
Orbit: 839 x 841 km, 71.0° (Epoch: 11 April)

Date Brightness Start Highest point End Pass type
(mag) Time Alt. Az. Time Alt. Az. Time Alt. Az.
11 Apr 3.1 07:31:10 10° NW 07:36:39 49° WSW 07:42:13 10° SSE visible
11 Apr 4.9 14:42:53 10° SSE 14:45:38 13° SE 14:48:23 10° ESE visible
11 Apr 2.3 16:24:55 10° SSW 16:30:39 77° ESE 16:36:20 10° NNE visible
11 Apr 3.7 18:11:02 10° WSW 18:13:54 14° W 18:16:45 10° NW visible
12 Apr 3.0 07:15:39 10° NW 07:21:09 52° WSW 07:26:45 10° SSE visible
12 Apr 5.0 14:31:13 12° ESE 14:31:13 12° ESE 14:32:35 10° ESE visible
12 Apr 2.3 16:13:14 42° S 16:15:10 73° ESE 16:20:51 10° NNE visible
12 Apr 3.7 17:55:20 10° WSW 17:58:28 15° W 18:01:36 10° NW visible
13 Apr 2.9 07:00:07 10° NW 07:05:40 55° WSW 07:11:18 10° SSE visible
13 Apr 2.8 16:01:06 50° NE 16:01:06 50° NE 16:05:21 10° NNE visible
13 Apr 3.6 17:43:04 16° W 17:43:04 16° W 17:46:25 10° NW visible
14 Apr 2.9 06:44:35 10° NW 06:50:10 59° WSW 06:55:50 10° SSE visible
14 Apr 5.2 08:34:26 10° SW 08:35:29 10° SW 08:36:32 10° SSW visible
14 Apr 4.2 15:48:30 18° NE 15:48:30 18° NE 15:49:50 10° NE visible
14 Apr 4.0 17:30:26 12° NW 17:30:26 12° NW 17:31:12 10° NW visible
15 Apr 2.8 06:29:05 10° NW 06:34:42 62° WSW 06:40:22 10° SSE visible
15 Apr 5.1 08:18:20 10° WSW 08:19:56 11° SW 08:21:31 10° SSW visible
16 Apr 2.7 06:13:34 10° NNW 06:19:12 66° WSW 06:24:54 10° SSE visible
16 Apr 5.0 08:02:24 10° WSW 08:04:23 12° SW 08:06:22 10° SSW visible
17 Apr 5.0 07:46:32 10° WSW 07:48:50 12° SW 07:51:08 10° SSW visible
18 Apr 4.9 07:30:42 10° WSW 07:33:17 13° SW 07:35:52 10° SSW visible
19 Apr 4.9 07:14:54 10° WSW 07:17:44 14° SW 07:20:35 10° SSW visible
20 Apr 4.8 06:59:08 10° W 07:02:12 14° SW 07:05:16 10° SSW visible
